Location: Dammartin
(48.9032°N, 1.6195°E)
Time: 19:46:53
(UTC+00:00)

BlueWalker 3 - Pass Details

Date: 19 April 2024
Orbit: 482 x 494 km, 53.2° (Epoch: 22 May)

Event Time Altitude Azimuth Distance (km) Brightness Sun altitude
Rises 21:47:13 0° 266° (W) 2,576 6.0 -23.5°
Reaches altitude 10° 21:49:27 10° 273° (W) 1,696 5.0 -23.7°
Maximum altitude 21:53:10 48° 349° (NNW) 656 2.8 -24.0°
Enters shadow 21:53:56 41° 26° (NNE) 730 2.9 -24.1°
